Location: ?????
(31.8092°N, 35.2590°E)
Time: 03:33:37
(UTC+00:00)

Lacrosse 5 - Pass Details

Date: 29 October 2021
Orbit: 714 x 724 km, 57.0° (Epoch: 28 August)

Event Time Altitude Azimuth Distance (km) Brightness Sun altitude
Exits shadow 02:05:00 24° 198° (SSW) 1,449 3.3 -23.4°
Drops below altitude 10° 02:07:28 10° 176° (S) 2,186 4.4 -22.9°
Sets 02:10:01 0° 167° (SSE) 3,100 5.3 -22.4°
